www.pogodaiklimat.ru

Погода и климат >> Архив погоды >> Россия >> Курская область >> Курчатов


ПОГОДА в Курчатове

  • Прогноз погоды в Курчатове
  • Монитор погоды в Курчатове

АРХИВ ПОГОДЫ в Курчатове

Время (UTC), дата Ветер
(напр.,м/с)
 
Видим.   Явления Облачность Т
(С)
Тd
(С)
f
(%)
Тe
(С)
Тes
(С)
Комфортность P
(гПа)
Po
(гПа)
Тmin
(С)
Tmax
(С)
R
(мм)
R24
(мм)
S
(см)
03 13.08 В 1 10 км ясно +12.4 +10.9 91 +12 +13 1018.7 999.0 +11.6
06 13.08 штиль 0 10 км 3/0
[Cs]
+23.6 +12.5 50 +26 +34 жарко 1016.8 998.0 +11.6
09 13.08 ЮЗ 2 10 км 8/3 1000 м
[Cu med, cong Cs]
+28.8 +11.5 34 +29 +38 жарко 1015.0 996.4
12 13.08 ЮЗ 3 10 км 8/5 1000 м
[Cu med, cong Cs]
+31.6 +12.1 30 +32 +36 жарко 1013.6 995.2
15 13.08 ЮЗ 3 10 км 8/0
[Cc]
+31.2 +12.1 31 +32 +33 жарко 1011.6 993.3
18 13.08 штиль 0 н/о 9/4 600 м
[Sc Ac trans Cc]
+25.7 +14.5 50 +28 +28 жарко 1012.8 994.1 +31.8
21 13.08 ЮЗ 3 н/о 8/5 600 м
[Sc Ac trans]
+25.8 +13.7 47 +28 +28 жарко 1011.6 992.9
00 14.08 Ю 1 1000 м 10/10
[Sc]
+22.5 +15.2 63 +26 +26 жарко 1012.0 993.1
03 14.08 З 1 10 км 9/5 1000 м
[Sc Ac trans Cs]
+22.2 +15.8 67 +26 +26 душно 1013.3 994.4 +21.5
06 14.08 ЮВ 1 10 км 9/0
[Ac trans Cc]
+26.4 +18.2 61 +31 +36 душно 1013.3 994.6 +21.5
09 14.08 СЗ 2 10 км 5/3 1000 м
[Cu hum Cs]
+29.1 +17.9 51 +34 +42 очень
душно
1012.9 994.4
12 14.08 СЗ 2 10 км 8/5 1000 м
[Cu med, cong Ac trans Cs]
+32.1 +16.8 40 +35 +39 очень
душно
1011.4 993.2
15 14.08 В 1 10 км 5/5 600 м
[Cu med, cong]
+31.1 +16.2 41 +34 +35 душно 1010.0 991.8
18 14.08 Ю 2 н/о 6/4 1000 м
[Sc Ac As]
+26.4 +17.1 57 +30 +30 душно 1010.0 991.4 +32.8
21 14.08 ЮВ 1 н/о ясно +21.3 +16.3 73 +25 +25 комфорт 1010.2 991.3
03 15.08 ЮВ 1 10 км ясно +18.2 +12.4 69 +20 +20 1010.4 991.3 +17.3
06 15.08 Ю 2 10 км 3/0
[Ci fib]
+26.8 +10.5 36 +28 +33 жарко 1009.9 991.3 +17.3
09 15.08 Ю 3 10 км 9/0
[Ci sp]
+31.0 +6.7 22 +30 +39 жарко 1009.1 990.7
12 15.08 Ю 3 10 км 9/9 600 м
[Cb cap]
+30.3 +5.7 21 +29 +29 жарко 1008.6 990.2
15 15.08 СЗ 1 10 км 9/8 600 м
[Cb cap Ac trans Cs]
+28.5 +10.8 33 +29 +29 жарко 1008.2 989.7
18 15.08 штиль 0 н/о 10/8 600 м
[Cb cap Ac As]
+23.3 +13.2 53 +26 +26 жарко 1008.7 990.0 +31.7
21 15.08 С 1 н/о 10/3 1000 м
[Sc Ac As]
+22.7 +17.8 74 +28 +28 душно 1009.0 990.2
00 16.08 С 1 н/о 10/0
[Ac As]
+20.4 +16.8 80 +25 +25 комфорт 1009.2 990.3
03 16.08 З 2 10 км в посл. час ливневой дождь 10/8 600 м
[Cb cap Ac As]
+19.2 +16.8 86 +21 +21 комфорт 1007.6 988.6 +19.0 0.0
06 16.08 СЗ 1 10 км {ливн. осадки} 9/5 1000 м
[Sc Ac As]
+23.4 +17.2 68 +29 +30 душно 1007.2 988.5 +19.0 0.0
09 16.08 З 3 10 км 9/3 1000 м
[Sc Ac trans Cc]
+26.8 +16.0 52 +30 +35 душно 1006.2 987.7
12 16.08 З 3 10 км 9/6 600 м
[Cu Sc Ac trans Cc]
+31.0 +12.8 33 +32 +34 жарко 1004.9 986.7
15 16.08 СЗ 3 10 км 8/4 600 м
[Cu Sc Ac trans Cc]
+26.8 +17.7 57 +31 +32 душно 1005.3 986.9
18 16.08 СЗ 4 н/о 6/4 600 м
[Cb cap Cc]
+23.2 +17.9 72 +29 +29 душно 1006.8 988.1 +31.1
21 16.08 СЗ 3 н/о 8/0
[Cs]
+19.8 +17.0 84 +23 +23 комфорт 1007.3 988.4
00 17.08 СЗ 2 н/о 10/0
[Ac As]
+19.6 +16.7 83 +22 +22 комфорт 1007.3 988.4
03 17.08 С 2 10 км 10/10 600 м
[Sc]
+18.7 +16.5 87 +20 +20 1007.5 988.5 +18.7
06 17.08 С 2 10 км 10/10 600 м
[Sc]
+19.2 +16.0 82 +21 +21 комфорт 1007.4 988.4 +18.4
09 17.08 СЗ 2 10 км в посл. час ливневой дождь 10/10 300 м
[Cb cap]
+20.1 +16.1 78 +23 +23 комфорт 1008.0 989.1
12 17.08 З 4 10 км слаб. ливневой дождь 10/10 300 м
[Cb cap]
+18.6 +16.4 87 +19 +19 1008.0 988.9
15 17.08 СЗ 1 10 км в посл. час ливневой дождь {гроза} 9/8 600 м
[Cb cap Ac trans]
+18.5 +16.7 89 +20 +21 1007.9 988.8 8
18 17.08 З 2 н/о {гроза, ливн. осадки} 10/10 600 м
[Cb cap]
+16.9 +15.2 90 +17 +17 1009.1 989.9 +20.7 8
21 17.08 З 2 н/о 10/10 600 м
[Cb cap]
+15.6 +14.0 90 +15 +15 1009.1 989.8
00 18.08 З 2 н/о 10/10 600 м
[Sc]
+14.9 +13.3 90 +15 +15 1009.6 990.3
03 18.08 ЮЗ 2 10 км 10/10 600 м
[Sc]
+14.6 +13.0 90 +14 +14 1009.7 990.4 +14.6
06 18.08 З 2 10 км 10/10 600 м
[Cb cap]
+15.6 +12.8 83 +15 +15 1010.4 991.1 +14.6
09 18.08 ЮЗ 1 10 км 10/10 600 м
[Cb cap]
+17.9 +12.9 73 +19 +19 1010.7 991.6
15 18.08 ЮЗ 1 10 км 10/10 600 м
[Cb cap]
+17.9 +12.4 70 +19 +19 1013.7 994.5
18 18.08 З 2 н/о 10/10 600 м
[Cb cap]
+17.6 +13.1 75 +18 +18 1014.9 995.6 +18.1
21 18.08 СЗ 2 н/о 8/5 600 м
[Cb cap Ac trans]
+17.0 +13.5 80 +17 +17 1015.6 996.4
03 19.08 Ю 1 10 км 3/3 1000 м
[Sc]
+13.2 +11.8 91 +13 +13 1018.1 998.5 +13.2
06 19.08 З 2 10 км ясно +18.6 +13.7 73 +20 +26 1018.8 999.6 +13.2
09 19.08 З 2 10 км 3/3 1000 м
[Cu hum]
+23.2 +13.0 53 +26 +35 жарко 1018.8 999.9
15 19.08 З 1 10 км 1/1 1000 м
[Cu hum]
+26.0 +11.6 41 +27 +29 жарко 1018.8 1000.0
18 19.08 штиль 0 н/о ясно +19.7 +14.5 72 +21 +21 комфорт 1020.5 1001.3 +26.6
21 19.08 штиль 0 н/о ясно +15.6 +13.2 86 +15 +15 1021.1 1001.6

 

Местоположение метеостанции Курчатов (Курская область, Россия): широта 51.65 долгота 35.68 высота над уровнем моря 164 м.

В архиве по умолчанию представлена погода в Курчатове за последнюю неделю. Архивные данные за месяц целиком и за предыдущие месяцы, начиная с января 2011 года, Вы можете получить, выбрав интересующий диапазон дат из раскрывающегося списка и нажав кнопку "Ввод!".


*Определитесь, кто Вы:
робот инопланетянин человек

Внимание! Время в таблицах - всемирное. Для получения местного времени необходимо прибавить поправку, которая равна 3 ч.

Смотрите также архив погоды в соседних городах и на ближайших метеорологических станциях:

Погода в Курске (Курская область, Россия) (36 км)
Погода в Фатеже (Курская область, Россия) (50 км)
Погода в Обояни (Курская область, Россия) (67 км)
Погода в Рыльск (Курская область, Россия) (70 км)
Погода в Железногорске (Курская область, Россия) (81 км)
Погода в Понырях (Курская область, Россия) (86 км)
Погода в Готне (Белгородская область, Россия) (95 км)
Погода в Тиме (Курская область, Россия) (100 км)
Погода в Дмитровск-Орловский (Орловская область, Россия) (101 км)
Погода в Сумах (Сумская область, Украина) (113 км)

Пояснения к столбцам:

Ветер - указаны скорость ветра в м/с - средняя за 10 мин, порывы в срок и между сроками (в фигурных скобках) и направление, откуда дует ветер: С - северный, СВ - северо-восточный, В - восточный, ЮВ - юго-восточный, Ю - южный, ЮЗ - юго-западный, З - западный, СЗ - северо-западный.
Видимость - горизонтальная дальность видимости в метрах или километрах. При видимости от 1 до 10 км при отсутствии осадков обычно наблюдается дымка, при ухудшении видимости до 1 км и менее - туман. В сухую погоду видимость может ухудшаться дымом, пылью или мглою.
Явления - указаны атмосферные явления, наблюдавшиеся в срок или в последний час перед сроком; фигурными скобками обозначены явления, наблюдавшиеся между сроками (за 1-3 часа до срока); квадратными скобками обозначены град или гололедные отложения с указанием их диаметра в мм.
Облачность - указаны через наклонную черту общая и нижняя облачность в баллах и высота нижней границы облаков в метрах; квадратными скобками обозначены формы облаков: Ci - перистые, Cs - перисто-слоистые, Cc - перисто-кучевые, Ac - высококучевые, As - высокослоистые, Sc - слоисто-кучевые, Ns - слоисто-дождевые, Cu - кучевые, Cb - кучево-дождевые. Подробнее классификацию облаков см. в Атласе облаков (PDF).
T - Температура воздуха - температура, измеренная на высоте 2 м над землей.
Td - Температура точки росы - температура, при понижении до которой содержащийся в воздухе водяной пар достигнет насыщения.
f - Относительная влажность воздуха - влажноcть воздуха, измеренная на высоте 2 м над землей.
Te - Эффективная температура - температура, которую ощущает одетый по сезону человек в тени. Характеристика душности погоды. При расчете учитывается влияние влажности воздуха и скорости ветра на теплоощущения человека.
Tes - Эффективная температура на солнце - температура, которую ощущает человек, с поправкой на солнечный нагрев. Характеристика знойности погоды. Зависит от высоты солнца над горизонтом, облачности и скорости ветра. Ночью, в пасмурную погоду, а также при ветре 12 м/с и более поправка равна нулю.
P - Атмосферное давление - приведенное к уровню моря атмосферное давление.
Po - Атмосферное давление - измеренное на уровне метеостанции атмосферное давление.
Tmin - Минимальная температура - минимум температуры воздуха на высоте 2 м над землей.
Tmax - Максимальная температура - максимум температуры воздуха на высоте 2 м над землей.
R - Количество осадков - Количество выпавших осадков за период времени, мм. При наведении курсора мыши на число - период времени, за который выпало указанное количество осадков.
R24 - Количество осадков - Количество выпавших осадков за 24 часа, мм.
S - Снежный покров - Высота снежного покрова, см. При наведении курсора мыши на число - состояние снежного покрова и степень покрытия местности в баллах.